Tampico, Mexico

1:47 PM CDT on July 26, 2017 (GMT -0500)
Gen Francisco Javier Mina

Weather History for MMTM - November, 2012

Change the Weather History Date:

Monday, November 26, 2012

  Actual Average Record
Temperature  
Mean Temperature 74 °F -  
Max Temperature 84 °F 77 °F 88 °F (2015)
Min Temperature 65 °F 59 °F 37 °F (1996)
Cooling Degree Days 10    
Growing Degree Days 24 (Base 50)    
Moisture  
Dew Point 66 °F    
Average Humidity 75    
Maximum Humidity 96    
Minimum Humidity 49    
Precipitation  
Precipitation 0.00 in 0.05 in - ()
Sea Level Pressure  
Sea Level Pressure 30.02 in    
Wind  
Wind Speed 5 mph ()    
Max Wind Speed 14 mph    
Max Gust Speed -    
Visibility 8.3 miles    
Events      
Averages and records for this station are not official NWS values.
T = Trace of Precipitation, MM = Missing Value Source: Averaged Metar Reports

Daily Weather History Graph

Daily Weather History Graph

Search for Another Location

Airport or City:

Trip Planner

Search our weather history database for the weather conditions in past years. The results will help you decide how hot, cold, wet, or windy it might be!

Date:

Astronomy

Nov. 26, 2012 Rise Set
Actual Time 6:51 AM CST 5:46 PM CST
Civil Twilight 6:27 AM CST 6:10 PM CST
Nautical Twilight 5:59 AM CST 6:37 PM CST
Astronomical Twilight 5:32 AM CST 7:05 PM CST
Moon 4:34 PM CST 5:10 AM CST
Length of Visible Light 11h 43m
Length of Day
10h 55m
Waxing Gibbous, 97% of the Moon is Illuminated
Nov 26
Waxing Gibbous
Nov 28
Full
Dec 6
Last Quarter
Dec 13
New
Dec 19
First Quarter

Hourly Weather History & Observations

Time (CST) Temp. Heat Index Dew Point Humidity Pressure Visibility Wind Dir Wind Speed Gust Speed Precip Events Conditions
2:45 AM 67 °F - 66 °F 96% 30.03 in 6 mi South 2.2 mph - -   Clear
5:40 AM 67 °F - 66 °F 96% 30.03 in 6 mi SW 2.2 mph - -   Clear
5:40 AM 68.0 °F - 64.4 °F 88% 29.98 in 5.0 mi WSW 5.8 mph - N/A   Scattered Clouds
6:50 AM 68.0 °F - 64.4 °F 88% 30.01 in 5.0 mi WSW 6.9 mph - N/A   Scattered Clouds
7:43 AM 68.0 °F - 66.2 °F 94% 30.03 in 5.0 mi WSW 8.1 mph - N/A   Mostly Cloudy
8:45 AM 70 °F - 66 °F 83% 30.08 in 11 mi WSW 2.2 mph - -   Scattered Clouds
8:55 AM 69.8 °F - 64.4 °F 83% 30.06 in 7.0 mi WSW 8.1 mph - N/A   Mostly Cloudy
9:50 AM 73.4 °F - 64.4 °F 73% 30.06 in 8.0 mi SW 9.2 mph - N/A   Mostly Cloudy
10:45 AM 77.0 °F - 64.4 °F 65% 30.06 in 10.0 mi SW 10.4 mph - N/A   Mostly Cloudy
11:42 AM 78.8 °F - 64.4 °F 61% 30.04 in 10.0 mi South 13.8 mph - N/A   Mostly Cloudy
11:45 AM 79 °F - 69 °F 63% 30.08 in 15 mi SW 4.5 mph - -   Scattered Clouds
12:44 PM 78.8 °F - 64.4 °F 61% 30.02 in 10.0 mi South 13.8 mph - N/A   Mostly Cloudy
1:58 PM 80.6 °F 82.3 °F 64.4 °F 58% 29.97 in 8.0 mi SSE 3.5 mph - N/A   Mostly Cloudy
2:40 PM 84 °F - 68 °F 49% 29.99 in 16 mi South 6.7 mph - -   Scattered Clouds
3:40 PM 80.6 °F 82.3 °F 64.4 °F 58% 29.95 in 8.0 mi SE 8.1 mph - N/A   Mostly Cloudy
4:41 PM 77.0 °F - 66.2 °F 69% 29.95 in 7.0 mi SSE 5.8 mph - N/A   Mostly Cloudy
5:40 PM 77 °F - 70 °F 73% 30.00 in 16 mi SE 8.9 mph - -   Clear
5:40 PM 75.2 °F - 66.2 °F 73% 29.93 in 7.0 mi SE 5.8 mph - N/A   Mostly Cloudy
6:41 PM 73.4 °F - 64.4 °F 73% 29.98 in 7.0 mi SE 5.8 mph - N/A   Mostly Cloudy
7:40 PM 73.4 °F - 66.2 °F 78% 29.99 in 7.0 mi SE 6.9 mph - N/A   Mostly Cloudy
8:38 PM 71 °F - 67 °F 82% 30.05 in 6 mi SE 6.7 mph - -   Clear
8:41 PM 73.4 °F - 64.4 °F 73% 30.01 in 7.0 mi East 5.8 mph - N/A   Scattered Clouds
9:42 PM 73.4 °F - 64.4 °F 73% 30.04 in 7.0 mi Calm Calm - N/A   Scattered Clouds
10:40 PM 71.6 °F - 64.4 °F 78% 30.08 in 7.0 mi Calm Calm - N/A   Scattered Clouds
11:35 PM 70 °F - 67 °F 86% 30.14 in 6 mi North 4.5 mph - -   Mostly Cloudy